TimeAKDT,TemperatureF,Dew PointF,Humidity,Sea Level PressureIn,VisibilityMPH,Wind Direction,Wind SpeedMPH,Gust SpeedMPH,PrecipitationIn,Events,Conditions,WindDirDegrees,DateUTC
12:16 AM,48.2,42.8,82,29.95,10.0,North,-9999.0,-,N/A,,Mostly Cloudy,0,2012-10-03 08:16:00
12:36 AM,48.2,42.8,82,29.95,10.0,North,-9999.0,-,N/A,,Mostly Cloudy,0,2012-10-03 08:36:00
12:56 AM,48.2,42.8,82,29.96,10.0,North,-9999.0,-,N/A,,Mostly Cloudy,0,2012-10-03 08:56:00
1:16 AM,48.2,42.8,82,29.96,10.0,North,-9999.0,-,N/A,,Overcast,0,2012-10-03 09:16:00
1:36 AM,48.2,42.8,82,29.97,10.0,North,-9999.0,-,N/A,,Overcast,0,2012-10-03 09:36:00
1:56 AM,48.2,41.0,76,29.97,10.0,North,-9999.0,-,N/A,,Overcast,0,2012-10-03 09:56:00
2:16 AM,48.2,41.0,76,29.96,10.0,North,-9999.0,-,N/A,,Overcast,0,2012-10-03 10:16:00
2:36 AM,48.2,42.8,82,29.96,10.0,North,-9999.0,-,N/A,,Overcast,0,2012-10-03 10:36:00
2:56 AM,48.2,42.8,82,29.96,10.0,North,-9999.0,-,N/A,,Overcast,0,2012-10-03 10:56:00
3:16 AM,46.4,42.8,87,29.95,6.0,North,-9999.0,-,N/A,,Overcast,0,2012-10-03 11:16:00
3:36 AM,46.4,42.8,87,29.94,10.0,North,-9999.0,-,N/A,,Overcast,0,2012-10-03 11:36:00
3:56 AM,46.4,42.8,87,29.94,7.0,North,-9999.0,-,N/A,,Overcast,0,2012-10-03 11:56:00
4:16 AM,46.4,42.8,87,29.93,8.0,North,-9999.0,-,N/A,,Overcast,0,2012-10-03 12:16:00
4:36 AM,46.4,42.8,87,29.93,10.0,North,-9999.0,-,N/A,,Overcast,0,2012-10-03 12:36:00
4:56 AM,46.4,42.8,87,29.91,7.0,North,-9999.0,-,N/A,,Overcast,0,2012-10-03 12:56:00
5:16 AM,46.4,42.8,87,29.92,5.0,North,-9999.0,-,N/A,,Overcast,0,2012-10-03 13:16:00
5:36 AM,46.4,42.8,87,29.91,5.0,North,-9999.0,-,N/A,,Overcast,0,2012-10-03 13:36:00
5:56 AM,46.4,42.8,87,29.90,8.0,North,-9999.0,-,N/A,,Overcast,0,2012-10-03 13:56:00
6:16 AM,46.4,42.8,87,29.89,9.0,North,-9999.0,-,N/A,,Overcast,0,2012-10-03 14:16:00
6:36 AM,46.4,42.8,87,29.88,10.0,North,-9999.0,-,N/A,,Overcast,0,2012-10-03 14:36:00
6:56 AM,46.4,42.8,87,29.87,10.0,North,-9999.0,-,N/A,,Overcast,0,2012-10-03 14:56:00
7:16 AM,46.4,42.8,87,29.86,7.0,North,-9999.0,-,N/A,,Overcast,0,2012-10-03 15:16:00
7:36 AM,46.4,42.8,87,29.85,9.0,North,-9999.0,-,N/A,,Overcast,0,2012-10-03 15:36:00
7:56 AM,46.4,42.8,87,29.83,9.0,North,-9999.0,-,N/A,,Overcast,0,2012-10-03 15:56:00
8:16 AM,46.4,42.8,87,29.82,8.0,North,-9999.0,-,N/A,,Overcast,0,2012-10-03 16:16:00
8:36 AM,46.4,42.8,87,29.79,7.0,North,-9999.0,-,N/A,,Overcast,0,2012-10-03 16:36:00
8:56 AM,46.4,42.8,87,29.79,4.0,North,-9999.0,-,N/A,,Overcast,0,2012-10-03 16:56:00
9:16 AM,46.4,42.8,87,29.78,4.0,North,-9999.0,-,N/A,,Overcast,0,2012-10-03 17:16:00
9:36 AM,46.4,42.8,87,29.76,4.0,North,-9999.0,-,N/A,,Overcast,0,2012-10-03 17:36:00
9:56 AM,46.4,42.8,87,29.74,3.0,North,-9999.0,-,N/A,,Overcast,0,2012-10-03 17:56:00
10:16 AM,46.4,42.8,87,29.73,3.0,North,-9999.0,-,N/A,,Overcast,0,2012-10-03 18:16:00
10:36 AM,46.4,42.8,87,29.72,3.0,North,-9999.0,-,N/A,,Mostly Cloudy,0,2012-10-03 18:36:00
10:56 AM,48.2,42.8,82,29.71,5.0,North,-9999.0,-,N/A,,Overcast,0,2012-10-03 18:56:00
11:16 AM,48.2,42.8,82,29.69,3.0,North,-9999.0,-,N/A,,Overcast,0,2012-10-03 19:16:00
11:36 AM,48.2,44.6,87,29.67,3.0,North,-9999.0,-,N/A,,Overcast,0,2012-10-03 19:36:00
11:56 AM,48.2,44.6,87,29.64,5.0,North,-9999.0,-,N/A,,Mostly Cloudy,0,2012-10-03 19:56:00
12:16 PM,48.2,44.6,87,29.63,5.0,North,-9999.0,-,N/A,,Overcast,0,2012-10-03 20:16:00
12:36 PM,50.0,46.4,87,29.61,5.0,North,-9999.0,-,N/A,,Overcast,0,2012-10-03 20:36:00
12:56 PM,51.8,46.4,82,29.57,10.0,North,-9999.0,-,N/A,,Overcast,0,2012-10-03 20:56:00
1:16 PM,55.4,46.4,72,29.56,7.0,North,-9999.0,-,N/A,,Overcast,0,2012-10-03 21:16:00
1:36 PM,55.4,46.4,72,29.56,8.0,North,-9999.0,-,N/A,,Overcast,0,2012-10-03 21:36:00
1:56 PM,55.4,46.4,72,29.57,7.0,North,-9999.0,-,N/A,,Overcast,0,2012-10-03 21:56:00
2:16 PM,55.4,46.4,72,29.56,5.0,North,-9999.0,-,N/A,,Overcast,0,2012-10-03 22:16:00
2:36 PM,55.4,46.4,72,29.56,6.0,North,-9999.0,-,N/A,,Overcast,0,2012-10-03 22:36:00
2:56 PM,53.6,46.4,77,29.55,4.0,North,-9999.0,-,N/A,,Overcast,0,2012-10-03 22:56:00
3:16 PM,55.4,48.2,77,29.53,3.0,North,-9999.0,-,N/A,,Overcast,0,2012-10-03 23:16:00
3:36 PM,55.4,46.4,72,29.53,8.0,North,-9999.0,-,N/A,,Overcast,0,2012-10-03 23:36:00
3:56 PM,55.4,46.4,72,29.52,10.0,North,-9999.0,-,N/A,,Overcast,0,2012-10-03 23:56:00
4:16 PM,57.2,48.2,72,29.52,10.0,North,-9999.0,-,N/A,,Overcast,0,2012-10-04 00:16:00
4:36 PM,55.4,46.4,72,29.52,8.0,North,-9999.0,-,N/A,,Overcast,0,2012-10-04 00:36:00
4:56 PM,55.4,46.4,72,29.51,6.0,North,-9999.0,-,N/A,,Mostly Cloudy,0,2012-10-04 00:56:00
5:16 PM,53.6,44.6,72,29.50,4.0,North,-9999.0,-,N/A,,Overcast,0,2012-10-04 01:16:00
5:36 PM,53.6,44.6,72,29.51,5.0,North,-9999.0,-,N/A,,Overcast,0,2012-10-04 01:36:00
5:56 PM,53.6,44.6,72,29.52,4.0,North,-9999.0,-,N/A,,Overcast,0,2012-10-04 01:56:00
6:16 PM,53.6,44.6,72,29.52,4.0,North,-9999.0,-,N/A,,Mostly Cloudy,0,2012-10-04 02:16:00
6:36 PM,53.6,44.6,72,29.52,2.0,North,-9999.0,-,N/A,,Overcast,0,2012-10-04 02:36:00
6:56 PM,53.6,44.6,72,29.52,3.0,North,-9999.0,-,N/A,,Mostly Cloudy,0,2012-10-04 02:56:00
7:16 PM,53.6,44.6,72,29.51,4.0,North,-9999.0,-,N/A,,Overcast,0,2012-10-04 03:16:00
7:36 PM,53.6,44.6,72,29.51,4.0,North,-9999.0,-,N/A,,Overcast,0,2012-10-04 03:36:00
7:56 PM,53.6,44.6,72,29.50,2.0,North,-9999.0,-,N/A,,Overcast,0,2012-10-04 03:56:00
8:16 PM,53.6,44.6,72,29.50,3.0,North,-9999.0,-,N/A,,Overcast,0,2012-10-04 04:16:00
8:36 PM,53.6,44.6,72,29.50,5.0,North,-9999.0,-,N/A,,Overcast,0,2012-10-04 04:36:00
8:56 PM,53.6,44.6,72,29.51,4.0,North,-9999.0,-,N/A,,Mostly Cloudy,0,2012-10-04 04:56:00
9:16 PM,53.6,44.6,72,29.51,5.0,North,-9999.0,-,N/A,,Scattered Clouds,0,2012-10-04 05:16:00
9:36 PM,53.6,44.6,72,29.51,6.0,North,-9999.0,-,N/A,,Mostly Cloudy,0,2012-10-04 05:36:00
9:56 PM,53.6,44.6,72,29.50,8.0,North,-9999.0,-,N/A,,Overcast,0,2012-10-04 05:56:00
10:16 PM,53.6,44.6,72,29.49,10.0,North,-9999.0,-,N/A,,Overcast,0,2012-10-04 06:16:00
10:36 PM,53.6,42.8,67,29.50,10.0,North,-9999.0,-,N/A,,Overcast,0,2012-10-04 06:36:00
10:56 PM,53.6,42.8,67,29.50,8.0,North,-9999.0,-,N/A,,Overcast,0,2012-10-04 06:56:00
11:16 PM,53.6,42.8,67,29.49,10.0,North,-9999.0,-,N/A,,Overcast,0,2012-10-04 07:16:00
11:36 PM,53.6,42.8,67,29.48,10.0,North,-9999.0,-,N/A,,Overcast,0,2012-10-04 07:36:00
11:56 PM,51.8,42.8,71,29.48,10.0,North,-9999.0,-,N/A,,Overcast,0,2012-10-04 07:56:00